Theta_e
282 275 270 276 278 279 277 276 275 278 282 279 279 280 282 284 283 282 282 281 282 283 286 288 289 291 292 294 295 296 298 301 306 304 305 307 306 312 319 327 329 332 333 330
273 270 279 281 281 279 276 275 272 278 281 281 279 278 280 281 280 280 280 280 281 282 284 286 287 289 291 292 293 294 297 300 304 306 306 308 309 312 322 324 327 327 328 328
269 278 282 281 279 275 274 271 272 276 280 279 276 273 278 281 280 280 281 281 281 281 282 283 285 287 291 292 293 293 295 300 303 305 307 306 310 309 316 319 325 325 325 326
274 281 281 279 276 278 269 280 279 277 272 264 277 265 275 276 277 278 280 280 280 281 282 283 284 287 290 293 294 293 294 300 303 305 306 306 305 305 310 317 322 323 325 324
274 278 278 273 279 280 276 281 278 275 267 273 269 269 271 274 273 275 278 278 279 281 281 282 284 287 292 294 293 293 294 299 301 305 306 306 305 304 311 314 317 321 327 327
274 281 280 280 281 281 281 276 272 270 264 261 265 267 269 271 273 275 277 278 279 280 281 282 285 288 292 295 295 294 293 296 299 304 308 306 304 303 307 311 315 319 324 325
272 273 279 281 277 280 275 265 261 262 261 263 262 268 270 274 277 276 276 277 279 280 280 282 284 286 291 293 295 299 295 295 304 305 307 307 308 305 305 311 315 318 321 322
262 268 270 280 278 273 270 266 261 258 261 264 265 264 271 277 279 278 277 278 279 279 281 282 284 286 288 291 292 294 297 297 299 300 301 302 304 307 309 310 312 316 316 317
262 266 278 279 281 277 271 266 275 266 262 261 262 266 273 278 277 276 275 277 276 278 280 281 283 286 288 289 290 291 293 294 295 296 298 299 299 302 304 306 307 308 309 309
270 264 271 275 280 277 272 275 265 264 260 258 261 257 264 272 273 274 273 273 275 277 279 280 282 284 287 288 289 290 291 292 293 294 295 296 296 297 299 300 301 301 301 302
274 268 269 275 268 268 269 267 268 268 270 266 264 265 273 274 274 273 273 274 275 276 278 279 281 283 285 286 287 288 289 290 290 291 292 293 293 294 294 295 295 295 295 296
277 270 263 267 275 278 273 270 273 268 268 271 270 268 277 278 276 275 274 275 276 277 277 278 280 281 283 284 285 286 287 287 288 289 289 290 291 291 292 292 292 293 292 293
277 265 260 267 272 275 271 276 276 272 274 267 266 267 280 279 277 276 274 274 276 276 276 277 278 279 280 282 283 284 285 286 287 287 287 287 287 288 289 289 290 291 290 291
281 273 264 263 266 264 268 274 275 270 263 267 267 271 273 276 275 275 274 274 275 275 275 276 277 278 279 280 281 282 283 285 285 285 285 285 285 286 287 287 288 288 289 289
274 262 268 269 270 268 270 270 271 267 267 265 266 268 274 276 277 275 275 275 274 274 274 275 276 277 278 279 280 281 282 283 284 284 284 284 284 285 285 286 286 286 287 287
275 262 264 260 272 273 270 273 272 268 267 266 267 269 275 279 279 276 274 274 273 274 274 275 275 276 277 278 279 280 281 281 282 282 282 283 283 283 284 284 285 285 285 285
268 262 256 259 267 265 264 267 270 268 266 269 265 271 268 273 277 275 274 274 273 274 274 274 274 275 276 278 279 279 280 281 281 281 282 282 282 282 282 283 283 283 283 284
262 258 254 257 261 259 271 272 270 269 271 268 268 269 271 271 273 277 276 274 274 274 274 274 274 275 276 277 278 279 280 280 280 280 280 281 281 281 282 282 282 282 282 282
273 262 256 258 265 266 270 272 272 271 271 274 271 270 273 273 276 278 277 277 275 275 275 274 274 274 275 275 277 277 277 278 278 278 279 280 281 281 281 280 281 282 282 281
274 270 260 259 258 257 270 272 274 274 267 275 275 275 274 275 270 273 276 276 275 274 274 273 273 273 273 274 276 276 275 276 276 277 278 279 280 280 279 280 280 281 281 281
264 261 260 257 257 263 271 274 274 266 270 274 275 274 274 273 274 276 276 275 274 273 273 273 272 271 270 271 274 273 272 271 274 277 277 278 279 279 279 279 279 279 279 279
263 256 254 250 252 261 272 273 272 275 274 275 273 274 274 274 275 274 274 273 272 271 271 271 271 269 269 269 271 270 268 269 272 274 275 275 276 278 278 277 277 277 278 278
263 267 264 265 267 273 274 274 275 276 275 274 274 274 274 274 272 272 272 270 270 269 270 269 268 268 267 266 266 267 265 267 269 271 271 272 273 275 277 276 275 276 277 277
265 265 266 265 268 270 273 275 275 276 275 276 275 274 274 272 270 270 268 268 268 265 264 263 264 264 264 263 264 262 264 265 265 266 267 270 273 275 274 276 276 276 276 278
267 267 265 266 269 264 269 270 275 275 273 271 269 272 273 273 271 271 269 268 265 264 262 260 261 262 262 261 261 260 262 263 267 267 268 268 271 276 277 275 275 275 274 278
267 268 269 270 273 272 272 269 272 273 273 272 271 267 267 270 272 269 267 266 265 265 263 263 263 262 261 261 261 261 261 263 265 267 267 267 268 272 276 278 279 282 282 281
Wind_Speed
5 7 2 3 2 4 5 8 17 19 16 8 10 22 22 15 5 10 11 11 14 16 17 15 15 14 13 13 12 13 12 12 6 5 3 1 6 11 9 7 5 10 14 17
7 2 1 3 5 5 5 13 12 12 3 20 12 25 16 6 7 7 11 15 16 18 20 20 18 16 14 14 13 14 13 11 8 6 4 2 4 11 9 4 2 4 4 5
4 1 4 3 5 1 5 6 6 15 24 8 7 7 2 1 2 11 14 12 13 14 19 20 21 18 16 14 13 13 12 12 7 7 5 4 3 11 9 6 5 4 8 10
4 4 4 3 4 3 6 5 13 18 6 4 6 7 4 4 5 13 18 20 19 19 17 17 20 19 17 16 12 12 12 12 7 5 6 7 7 10 11 6 6 6 11 11
6 2 4 3 5 2 11 18 14 5 3 3 6 1 6 4 8 19 21 19 18 18 18 19 19 19 19 16 11 10 11 10 6 5 5 6 6 3 13 5 10 10 5 9
6 3 3 4 8 2 8 9 3 4 4 3 4 4 6 2 7 20 17 21 20 21 19 18 18 17 15 10 8 8 9 7 4 5 5 10 9 7 10 9 8 9 4 4
8 4 3 1 5 4 10 7 6 8 7 6 3 2 9 3 12 16 22 19 20 18 18 18 17 15 14 12 12 7 4 3 1 3 4 5 8 12 11 14 6 8 4 3
4 9 2 5 3 4 3 5 4 4 5 9 4 5 5 3 16 16 16 16 18 17 16 16 16 14 12 11 12 12 10 8 7 5 3 2 4 1 4 4 5 4 2 1
3 8 5 2 2 4 5 5 3 3 2 2 4 8 3 7 16 16 17 19 19 18 17 16 15 13 11 10 10 10 9 7 7 5 3 2 4 1 0 4 5 1 1 3
4 6 2 6 1 4 6 2 5 3 6 8 6 5 6 19 28 23 22 20 19 19 17 15 13 14 10 10 9 9 8 7 6 5 4 1 2 1 1 1 2 3 4 6
4 6 8 2 1 5 5 4 2 1 3 4 7 6 4 12 18 19 18 18 16 16 15 15 15 13 9 10 9 9 7 6 6 5 4 4 5 2 5 4 2 4 10 7
5 5 6 9 2 3 5 6 4 2 5 3 4 6 2 12 13 14 15 16 15 14 15 14 13 11 12 11 10 10 8 7 6 6 4 5 4 6 6 5 4 9 9 7
5 2 5 10 5 2 2 4 4 3 3 3 4 7 12 17 12 14 14 15 13 13 15 14 14 13 13 12 10 9 9 7 6 6 6 6 6 6 5 7 8 8 10 8
4 3 8 8 9 3 4 5 2 3 3 5 6 11 14 19 16 18 16 16 14 13 14 13 12 12 12 11 10 10 9 8 7 6 5 6 5 6 7 7 13 9 10 8
4 5 3 7 11 4 10 12 7 6 5 6 6 2 10 15 15 13 13 15 15 16 15 14 13 12 12 11 11 10 10 10 8 6 6 6 7 9 9 14 10 12 12 10
1 4 2 7 3 5 7 11 8 5 4 7 6 9 6 4 9 14 13 15 16 16 15 14 13 13 13 13 12 11 11 10 8 7 9 8 10 10 14 12 12 14 14 13
3 3 4 8 5 5 6 8 7 4 4 6 3 7 2 5 5 7 13 12 12 13 14 15 14 13 12 13 12 13 11 10 11 10 11 12 11 16 13 13 13 14 14 14
6 4 3 6 6 4 8 3 4 6 7 8 6 6 6 5 6 2 3 7 11 13 13 12 10 11 13 13 14 13 14 14 13 15 14 13 12 13 12 12 14 14 11 14
3 5 1 2 2 9 4 5 7 7 8 10 7 5 5 2 3 2 3 5 6 10 10 9 9 11 11 13 13 11 13 14 15 15 15 12 11 12 13 15 13 10 13 12
6 7 5 2 3 6 6 3 3 4 7 8 7 6 3 1 3 2 5 7 8 8 8 10 11 11 12 13 11 11 11 12 13 12 10 11 11 12 12 11 10 11 11 12
3 1 5 4 4 13 5 5 4 7 8 6 7 6 5 3 2 1 4 5 6 6 9 9 9 10 11 12 11 13 13 14 12 10 10 10 11 11 10 11 9 9 10 11
9 10 6 4 2 11 8 5 8 6 2 6 5 5 5 4 3 2 3 3 4 5 7 9 8 9 10 12 10 11 13 12 10 8 10 11 10 8 7 7 7 8 8 8
4 9 8 13 11 4 10 3 5 5 6 6 6 6 6 6 4 2 4 1 2 3 4 5 5 6 7 9 10 9 10 10 10 9 10 8 7 7 6 5 6 5 5 6
6 4 4 3 5 12 10 9 4 6 6 6 6 7 7 6 6 4 3 3 3 1 1 2 3 5 6 7 8 6 7 7 5 5 6 5 7 7 6 5 4 5 5 4
5 6 6 8 10 5 9 10 10 6 4 5 3 7 8 6 4 4 4 4 4 4 3 1 1 2 4 5 5 5 6 6 6 6 6 6 4 6 5 4 4 4 1 5
9 10 8 10 9 5 7 6 10 12 11 9 9 4 3 5 7 5 4 3 3 4 0 1 2 2 3 3 4 5 6 6 5 4 4 3 3 2 2 3 6 16 15 15
Wind_Direction
344 61 67 346 143 223 263 268 279 288 296 294 275 295 294 319 39 49 13 340 329 324 320 317 317 314 310 303 307 287 262 250 231 249 170 188 296 289 302 289 265 191 194 187
14 95 16 301 246 239 250 284 283 289 262 318 308 296 309 106 79 48 5 352 336 326 325 323 321 317 312 299 293 291 271 245 219 199 230 171 297 302 282 292 268 160 188 142
142 221 316 250 301 228 265 238 275 292 326 299 330 313 191 355 137 2 353 338 329 321 320 321 318 315 312 299 290 288 288 242 217 217 187 219 302 299 280 308 273 190 181 164
220 294 320 337 279 91 315 227 305 304 340 293 59 285 252 327 322 347 340 341 334 327 323 315 315 312 311 302 286 274 279 244 199 218 204 191 175 279 291 249 288 261 190 203
263 307 354 336 276 104 249 310 314 297 172 297 324 322 269 11 339 340 334 333 328 324 320 319 315 313 305 300 280 273 272 245 205 185 185 207 194 201 280 267 265 265 202 202
249 306 229 248 303 219 305 321 12 60 81 23 232 80 279 349 322 325 335 327 327 324 322 318 314 317 309 315 298 269 252 237 206 190 186 230 201 175 282 287 266 261 202 204
328 278 300 302 337 338 25 15 346 359 0 245 181 329 252 176 341 336 331 328 324 322 321 321 318 325 326 347 350 333 242 236 158 159 230 219 239 187 222 260 246 246 201 198
48 331 12 337 134 234 25 106 124 291 313 296 17 233 301 197 347 336 324 321 324 323 321 320 320 330 328 349 0 0 19 33 30 36 357 360 290 288 224 291 269 254 200 94
73 279 298 210 333 107 303 34 211 243 189 360 274 296 315 311 335 341 339 337 333 330 329 326 327 337 333 350 3 1 9 15 11 0 331 332 283 347 231 252 286 317 118 105
205 321 234 280 112 356 125 246 9 6 321 303 291 288 264 337 347 343 342 338 333 328 332 332 336 343 334 346 354 3 5 360 351 344 331 258 286 306 117 144 199 150 91 62
134 115 288 344 44 183 0 3 11 150 251 289 306 286 252 338 349 330 330 328 328 330 335 338 343 335 332 354 360 357 357 356 351 0 346 323 39 6 64 70 75 89 71 62
195 156 274 240 259 161 164 197 194 221 303 251 263 283 229 349 344 328 329 328 333 336 340 344 337 338 354 356 359 358 354 359 358 354 10 23 27 49 73 78 74 63 77 67
168 298 337 347 14 12 221 210 190 233 286 259 320 287 352 333 340 347 341 338 339 341 346 349 353 357 357 354 355 355 358 358 7 20 30 40 41 56 74 78 78 73 80 79
169 205 179 201 219 150 284 288 185 119 117 270 232 289 323 332 340 350 346 345 345 351 353 352 359 357 356 356 355 359 1 359 12 25 48 57 60 73 71 84 73 73 78 87
135 215 262 252 264 202 249 251 234 191 226 175 258 278 309 336 333 342 337 346 352 357 358 356 356 360 2 5 4 9 11 10 15 22 45 57 62 68 72 70 80 77 78 76
102 265 114 289 267 270 259 252 221 209 237 277 274 278 216 279 329 343 348 346 349 351 353 355 358 3 6 9 10 13 19 19 23 37 44 49 63 72 64 67 72 74 73 70
135 126 61 270 329 332 328 232 179 198 207 166 233 229 298 309 337 342 341 345 343 345 349 353 356 359 3 10 9 19 19 28 37 35 43 45 54 61 62 63 66 68 68 71
132 95 91 263 351 7 241 170 166 191 230 213 281 267 241 221 263 205 330 333 341 347 351 353 352 0 6 7 13 14 22 28 30 36 35 40 49 61 66 69 64 61 65 66
126 114 45 102 255 289 293 207 182 174 279 192 205 249 259 249 275 201 360 360 345 346 347 350 358 2 360 9 6 21 25 23 30 28 28 26 34 49 54 56 55 57 66 66
107 80 117 95 150 228 239 180 163 125 290 180 184 205 211 296 43 287 1 10 6 12 4 5 8 8 9 1 10 30 30 33 33 22 28 32 36 49 59 61 59 60 63 66
141 5 191 190 237 285 227 158 163 82 245 160 180 189 172 180 189 60 23 27 25 10 9 14 21 25 11 1 11 26 26 22 360 5 29 38 38 46 50 55 50 61 71 76
172 148 198 83 81 283 155 78 173 204 83 149 172 186 179 172 158 117 64 24 14 19 14 13 22 27 15 10 15 32 26 351 354 11 30 26 25 38 46 74 76 66 74 83
277 192 181 187 211 226 205 216 199 167 148 183 169 193 170 161 201 163 148 156 303 358 13 10 11 6 16 17 22 27 356 352 357 20 25 22 36 36 27 50 67 84 72 73
245 171 220 64 255 225 219 224 235 194 186 162 174 168 167 177 182 186 198 217 207 194 260 291 360 22 13 5 14 5 349 343 360 23 11 14 41 35 26 47 52 72 64 69
191 129 194 266 270 318 245 226 200 204 170 138 126 167 186 167 196 178 202 202 205 205 216 180 29 21 359 351 3 355 350 349 15 29 26 31 33 52 66 61 83 81 66 67
190 189 178 227 212 184 240 246 165 173 190 184 155 167 209 168 173 180 209 210 194 220 99 52 29 14 336 348 2 359 352 358 9 40 28 14 27 16 50 77 77 76 76 68